Wind_Speed
12 11 11 10 11 10 10 9 7 7 6 6 7 8 8 8 7 6 6 5 5 4 4 4 4 5 5 6 7 8 8 9 10 10 11 11 11 11 11 11 10 10 10 9 8 8 8 8 8
13 12 12 12 12 11 10 9 9 7 7 7 8 9 10 10 9 8 6 6 6 6 6 6 6 6 7 8 8 9 10 10 11 12 12 12 12 12 12 12 11 11 11 11 10 10 9 9 9
15 14 14 13 13 12 11 10 8 8 8 9 10 10 11 11 10 9 8 7 7 7 7 8 8 8 9 9 10 11 11 12 12 13 13 13 13 13 13 13 13 12 12 12 12 12 11 11 10
16 15 15 15 15 13 12 11 10 10 10 11 11 12 12 11 11 11 10 9 9 9 9 9 9 10 10 11 11 12 13 14 14 14 14 15 15 15 15 15 14 14 14 14 13 13 13 12 12
16 16 16 16 16 14 12 11 9 11 12 13 12 13 13 11 11 11 10 9 10 10 10 10 11 11 12 13 13 14 15 15 16 16 16 16 16 16 16 16 16 16 16 15 15 14 14 14 13
16 16 16 17 17 15 14 13 11 12 13 14 14 14 13 12 11 12 11 10 10 11 11 12 13 13 14 15 15 16 16 17 17 18 18 18 18 18 17 17 17 17 17 17 16 16 16 15 15
17 17 17 18 19 17 14 13 14 14 15 16 16 15 15 14 12 13 12 12 11 11 12 13 14 15 15 16 16 17 18 18 19 19 19 20 20 19 20 19 18 18 18 17 18 18 17 16 16
18 18 18 19 19 18 15 13 15 17 17 17 17 16 15 15 14 13 13 12 12 12 13 14 14 15 16 15 16 17 18 18 19 19 19 20 20 21 21 20 20 19 19 19 19 19 18 18 17
18 19 19 20 20 19 17 16 17 17 17 16 16 16 15 15 15 14 14 13 12 13 15 15 15 16 17 16 16 17 18 18 18 19 20 20 21 21 21 21 20 20 19 19 19 19 19 19 19
18 19 19 21 21 20 18 17 17 19 18 17 17 17 17 16 15 15 14 13 13 14 15 15 15 16 16 17 17 18 18 18 18 18 19 20 20 21 21 21 20 20 20 20 20 20 20 20 20
19 19 20 21 21 21 19 19 18 18 17 17 17 18 17 16 16 15 13 12 13 14 15 15 16 17 17 18 18 17 18 18 19 19 20 20 21 22 22 22 22 22 22 21 21 21 21 21 21
20 21 21 22 22 21 20 20 20 19 18 18 19 17 16 17 16 15 13 13 14 14 15 16 17 17 17 18 19 18 19 19 20 21 21 22 22 23 24 24 23 23 22 22 21 21 21 21 22
22 22 22 23 22 20 20 21 20 20 19 18 17 17 17 16 14 15 13 14 14 15 16 17 17 18 18 18 18 19 19 20 20 20 21 21 22 23 23 23 23 23 22 22 22 21 22 22 22
23 23 23 22 20 20 20 20 20 19 19 18 16 16 17 17 16 15 13 14 15 16 17 18 18 18 18 19 20 20 21 21 21 21 21 21 22 23 23 24 24 23 23 23 23 22 22 23 23
23 24 23 22 21 19 17 17 18 18 16 16 16 16 16 16 16 15 14 16 16 16 17 18 18 19 19 20 20 21 22 22 22 23 22 23 23 24 24 25 24 23 23 23 24 23 24 24 24
23 23 23 22 21 19 16 16 16 15 15 15 16 16 16 13 14 15 15 16 18 17 18 19 19 19 20 21 21 21 22 22 22 23 23 25 24 24 25 24 24 23 24 24 24 25 24 24 25
21 21 21 21 20 18 17 16 15 15 15 14 14 15 15 13 15 15 16 17 18 18 19 19 20 20 21 22 22 21 22 22 23 24 25 25 24 24 24 24 24 24 24 25 25 26 25 25 25
19 21 20 19 17 16 15 14 14 15 14 14 15 14 14 15 15 16 17 17 18 18 19 19 19 20 21 22 22 22 22 22 23 25 25 25 25 25 24 25 25 25 25 26 26 26 26 26 26
19 20 18 17 16 16 15 16 15 15 16 15 15 15 14 14 16 17 18 18 18 18 19 19 20 21 22 22 22 22 22 22 23 24 25 25 25 25 24 25 25 25 26 27 28 28 28 28 27
18 17 17 16 15 16 16 17 17 16 15 16 16 16 17 16 16 18 18 18 17 17 18 19 20 21 22 21 22 23 23 24 24 24 25 25 25 25 25 24 25 26 27 27 28 28 28 28 28
16 16 14 14 13 15 17 18 18 17 17 17 17 17 17 17 18 19 20 19 18 17 19 19 20 21 21 21 22 24 24 25 26 26 26 26 25 25 25 25 25 26 27 27 28 28 28 28 29
14 13 14 13 14 16 18 19 19 18 18 18 17 17 17 17 19 19 18 18 17 18 19 19 20 20 21 21 22 24 24 25 26 26 26 26 26 26 26 26 26 27 27 27 28 28 29 29 29
12 12 13 14 15 16 18 20 20 19 18 18 18 18 19 19 19 19 19 18 18 19 19 19 19 20 21 22 23 24 25 25 25 26 26 26 26 26 26 27 27 27 27 27 27 28 29 29 29
11 12 13 14 16 18 18 20 20 19 20 20 19 20 20 19 20 20 19 18 19 19 19 20 20 21 22 23 23 24 24 25 26 26 26 26 26 27 27 28 28 28 28 28 28 29 29 29 29
13 13 14 15 17 17 17 19 18 18 18 18 19 20 20 20 21 20 19 19 18 19 20 20 22 22 22 23 23 23 24 24 25 26 26 26 26 27 27 28 28 28 28 29 29 28 27 27 27
13 14 14 15 16 16 18 19 18 17 18 18 19 20 20 20 19 18 18 18 19 20 21 22 21 21 22 23 23 24 25 25 25 25 26 26 26 27 27 28 28 28 28 28 28 27 27 27 27
11 13 14 16 16 16 16 17 16 15 16 17 19 19 18 18 17 17 19 20 20 21 22 21 20 21 22 23 23 24 24 24 25 25 25 25 25 26 26 27 27 27 27 27 26 26 26 26 26
13 13 14 17 17 18 17 17 17 16 15 16 15 15 16 16 17 18 19 20 20 21 20 21 22 21 22 22 23 23 24 25 25 25 25 25 25 26 26 25 25 25 26 26 25 25 25 24 24
15 16 17 17 19 19 19 17 17 17 17 17 17 17 17 16 17 17 18 19 20 20 20 21 20 20 21 22 23 23 24 25 24 24 25 25 25 25 24 24 23 23 23 22 21 21 21 21 21
16 18 18 18 19 19 19 17 17 18 19 18 17 17 15 15 16 17 19 20 20 20 20 19 19 20 20 21 22 23 24 24 24 24 24 24 24 23 23 22 21 20 20 19 19 18 18 18 18
Wind_Direction
213 207 203 196 194 198 203 204 202 209 227 258 279 291 295 298 301 293 293 288 288 293 293 293 280 276 275 273 270 272 275 278 278 275 274 275 276 278 281 282 284 285 286 286 285 287 289 290 291
216 209 203 198 197 203 207 206 212 215 234 258 268 284 289 290 282 275 279 279 280 282 282 284 279 277 275 275 275 274 273 276 277 273 272 272 273 274 276 276 278 280 282 283 281 282 283 284 285
216 211 205 200 198 207 215 215 221 241 249 263 270 277 283 288 280 272 274 274 278 280 282 281 278 278 276 277 277 275 275 276 277 274 274 273 271 271 272 273 274 275 278 279 280 280 280 279 279
216 212 208 205 204 213 220 220 234 249 255 262 271 277 281 286 282 279 272 270 275 280 284 281 277 276 278 280 278 276 276 277 277 276 274 273 272 270 271 271 272 273 274 276 276 277 277 276 276
214 211 208 206 209 216 225 231 238 259 267 270 273 278 278 277 275 275 268 268 275 281 282 279 278 277 278 280 282 282 280 278 278 277 276 274 273 272 271 271 272 273 274 275 274 274 274 275 275
211 210 209 208 210 217 223 232 244 260 272 275 275 277 274 267 272 272 271 268 273 277 279 278 278 280 281 282 283 284 281 279 277 277 277 274 272 272 271 271 272 272 272 272 271 271 271 273 273
210 209 209 211 214 217 225 238 254 266 267 272 275 272 272 269 269 273 274 269 270 273 275 276 278 280 283 283 283 284 283 281 277 276 278 275 271 269 270 271 271 270 271 271 271 270 269 270 272
208 207 210 214 217 221 231 245 256 261 267 273 271 272 273 272 272 272 274 266 267 272 275 274 278 282 284 285 286 286 286 284 281 277 276 276 274 271 270 272 271 271 272 272 270 269 268 268 270
209 210 213 216 221 226 233 243 251 260 264 268 270 272 272 271 271 271 271 266 267 273 276 277 280 283 283 285 287 287 287 285 283 280 277 275 273 272 272 272 272 272 274 274 273 271 267 267 268
210 212 214 220 225 233 238 246 253 260 267 269 270 270 273 272 270 269 269 267 269 273 273 276 282 285 285 285 287 286 287 286 284 283 280 276 273 272 272 273 274 273 273 273 273 271 268 267 267
209 211 214 222 227 235 241 248 255 261 266 272 272 270 269 270 269 270 266 269 272 276 275 278 283 286 286 286 285 282 283 283 282 280 281 276 273 271 272 272 273 273 272 271 270 270 266 265 266
211 213 216 222 228 235 243 249 257 261 265 269 270 271 269 273 272 271 271 276 276 277 275 277 279 281 283 284 283 280 283 283 282 280 281 280 277 274 272 270 274 274 273 271 269 268 268 267 268
214 215 217 221 228 237 246 251 256 257 263 267 269 270 278 278 279 276 273 274 276 278 278 278 279 283 283 283 283 283 286 286 285 283 283 283 282 279 276 273 274 274 272 271 270 269 268 267 268
213 215 219 225 230 238 245 249 251 257 264 268 270 274 277 279 282 281 279 277 277 279 283 285 286 286 286 285 287 289 290 290 289 287 287 287 286 283 276 273 274 273 271 271 270 268 267 268 268
213 215 218 225 231 238 243 245 251 258 268 271 274 279 280 277 279 282 281 280 279 280 283 285 287 287 287 287 288 289 290 290 289 287 287 288 288 283 280 276 275 274 273 271 271 270 269 268 269
215 216 219 225 234 243 246 250 257 265 272 275 277 278 282 283 281 283 286 284 282 282 286 287 285 286 288 288 289 291 291 289 288 286 286 289 287 283 281 277 277 276 276 273 271 270 269 269 269
216 217 221 226 233 241 246 254 260 270 275 278 282 282 283 286 288 285 291 291 284 283 287 286 286 288 289 289 291 292 292 290 288 288 288 288 286 283 281 278 279 277 275 274 272 270 268 269 269
217 220 222 226 233 243 250 262 269 273 275 281 287 284 283 285 287 287 290 289 284 285 286 284 288 291 291 289 290 291 291 292 291 289 288 287 286 284 282 280 281 278 277 275 273 271 269 269 269
215 217 220 226 235 249 260 269 274 271 274 279 282 281 279 285 290 289 288 286 283 283 285 286 289 292 293 292 289 290 292 293 292 290 287 287 288 286 284 282 281 279 278 276 275 273 270 269 269
214 217 221 231 243 252 258 265 270 270 275 278 278 281 284 284 291 290 287 286 284 284 286 288 287 290 292 293 292 292 294 294 292 292 291 289 288 286 286 284 282 280 280 279 277 275 273 271 270
216 220 224 229 240 248 257 258 261 262 269 274 276 280 285 286 288 289 288 286 283 284 286 288 288 289 290 292 294 294 295 295 293 293 293 292 291 289 289 288 286 283 281 279 278 277 275 272 272
221 226 226 227 236 244 254 259 259 264 268 274 278 284 284 284 287 286 288 291 287 286 285 287 287 289 290 293 295 295 296 295 295 293 292 292 292 292 292 290 287 286 284 281 279 277 274 273 272
227 223 228 230 235 243 249 262 268 271 272 278 283 287 287 284 285 286 290 290 288 288 289 291 290 291 293 293 294 294 294 295 295 294 293 293 291 291 291 290 289 286 284 282 281 281 277 274 272
227 231 231 232 237 245 251 263 269 270 273 278 283 284 283 287 289 286 287 291 290 292 293 295 294 295 295 294 293 293 293 294 294 293 293 292 291 291 291 290 288 286 284 283 281 281 278 275 271
229 237 240 239 243 250 256 261 266 270 272 278 285 286 285 290 288 285 286 291 290 294 294 295 295 294 294 293 292 293 294 294 294 294 294 293 293 292 291 290 288 286 285 284 283 281 278 276 273
235 243 248 252 252 254 258 264 272 275 274 278 282 284 283 287 285 282 284 287 291 294 295 296 294 294 293 293 293 293 294 294 295 297 297 296 296 295 294 292 289 288 286 285 283 282 278 276 273
245 250 254 258 262 266 268 271 276 279 281 283 284 285 284 286 287 286 285 291 293 295 296 297 297 297 295 295 294 297 295 297 299 300 301 300 299 298 298 296 291 289 288 285 283 281 277 275 273
247 250 254 258 264 270 271 276 281 285 288 289 285 286 291 291 293 290 292 292 294 297 298 299 298 297 296 296 298 300 301 301 302 302 302 301 300 299 299 298 295 293 289 285 283 280 278 275 274
249 255 261 266 267 271 275 280 285 288 290 291 292 293 292 290 295 298 300 298 299 299 299 300 299 297 298 299 301 302 303 303 304 304 303 302 301 300 301 302 299 296 294 291 288 284 281 276 272
252 256 259 266 271 272 278 285 287 293 293 293 295 298 295 295 299 299 300 301 302 301 303 301 300 301 301 302 303 304 305 305 305 305 305 304 303 303 304 304 302 300 296 293 290 287 283 277 273
Height
5906 5908 5909 5911 5913 5913 5913 5913 5913 5913 5914 5914 5915 5915 5916 5917 5918 5919 5917 5915 5915 5914 5914 5914 5914 5914 5914 5913 5913 5913 5913 5913 5912 5911 5911 5910 5910 5909 5908 5907 5906 5905 5904 5904 5902 5902 5901 5900 5899
5904 5906 5908 5910 5911 5911 5912 5912 5911 5912 5913 5913 5914 5915 5915 5915 5915 5915 5914 5914 5913 5913 5913 5913 5913 5913 5913 5912 5912 5912 5912 5911 5911 5910 5909 5909 5908 5907 5907 5906 5905 5904 5903 5902 5901 5900 5900 5899 5898
5902 5904 5907 5908 5908 5909 5910 5911 5910 5910 5912 5912 5913 5914 5914 5914 5913 5913 5912 5912 5912 5912 5912 5912 5912 5911 5911 5911 5911 5910 5910 5909 5909 5908 5908 5907 5907 5906 5905 5904 5903 5902 5902 5901 5900 5899 5898 5897 5896
5900 5903 5905 5907 5906 5907 5908 5908 5908 5908 5910 5910 5911 5912 5912 5913 5912 5912 5911 5911 5911 5910 5910 5910 5910 5910 5910 5909 5909 5908 5908 5907 5906 5906 5905 5905 5904 5904 5903 5902 5901 5901 5900 5899 5898 5897 5896 5895 5894
5898 5901 5903 5904 5904 5905 5905 5906 5905 5906 5907 5908 5909 5909 5910 5911 5910 5909 5909 5909 5909 5908 5908 5908 5908 5908 5907 5907 5906 5906 5905 5905 5904 5904 5903 5902 5902 5901 5900 5900 5899 5898 5897 5896 5896 5895 5894 5893 5892
5896 5898 5901 5901 5902 5903 5903 5903 5903 5904 5905 5906 5907 5907 5907 5908 5908 5907 5906 5907 5907 5906 5906 5906 5906 5905 5905 5904 5903 5903 5902 5902 5901 5901 5900 5899 5899 5898 5898 5897 5896 5896 5895 5894 5893 5892 5891 5891 5890
5895 5896 5898 5899 5900 5900 5901 5900 5901 5901 5902 5903 5904 5904 5905 5905 5906 5906 5905 5904 5904 5904 5904 5903 5903 5903 5902 5901 5900 5900 5899 5898 5897 5897 5896 5896 5895 5895 5894 5894 5893 5892 5891 5890 5890 5889 5888 5887 5887
5891 5894 5895 5897 5897 5898 5898 5898 5898 5899 5899 5900 5901 5902 5903 5903 5903 5904 5902 5902 5901 5901 5901 5900 5900 5900 5899 5898 5897 5896 5895 5894 5893 5893 5892 5892 5891 5891 5890 5890 5889 5888 5887 5887 5886 5885 5885 5884 5883
5888 5892 5893 5894 5894 5895 5895 5895 5896 5897 5897 5897 5898 5899 5900 5900 5900 5900 5900 5899 5899 5898 5898 5897 5897 5896 5895 5895 5894 5893 5891 5890 5889 5889 5888 5887 5887 5886 5886 5885 5885 5884 5883 5882 5882 5881 5880 5880 5879
5885 5889 5890 5891 5891 5891 5891 5892 5894 5894 5894 5894 5895 5896 5895 5896 5896 5897 5897 5896 5896 5895 5895 5894 5894 5893 5892 5892 5890 5889 5888 5886 5886 5885 5884 5883 5882 5882 5882 5881 5880 5879 5879 5878 5877 5877 5876 5876 5875
5882 5885 5886 5887 5888 5888 5889 5889 5890 5891 5892 5892 5892 5892 5892 5892 5892 5892 5893 5893 5893 5892 5892 5891 5890 5889 5889 5888 5886 5885 5884 5883 5882 5881 5880 5878 5878 5877 5877 5876 5876 5875 5874 5873 5873 5872 5872 5871 5870
5878 5881 5882 5884 5884 5885 5886 5887 5887 5888 5889 5890 5890 5889 5888 5888 5888 5888 5889 5889 5889 5889 5889 5888 5887 5886 5885 5884 5882 5881 5880 5878 5877 5876 5875 5874 5873 5872 5872 5871 5870 5870 5869 5868 5868 5867 5867 5866 5865
5875 5877 5879 5879 5881 5882 5883 5884 5885 5885 5885 5886 5887 5887 5886 5885 5885 5885 5886 5886 5886 5885 5885 5884 5883 5882 5881 5880 5878 5877 5876 5874 5873 5871 5870 5869 5868 5867 5866 5865 5865 5864 5864 5863 5862 5862 5861 5861 5860
5871 5873 5875 5876 5878 5879 5879 5881 5882 5881 5882 5883 5883 5884 5884 5883 5882 5882 5882 5882 5882 5881 5881 5880 5879 5878 5876 5875 5874 5873 5871 5869 5868 5866 5865 5864 5862 5861 5860 5859 5859 5859 5858 5857 5857 5856 5856 5855 5855
5867 5870 5871 5873 5874 5875 5876 5877 5878 5879 5879 5879 5880 5880 5879 5879 5879 5878 5878 5878 5878 5877 5876 5875 5874 5873 5872 5871 5869 5868 5866 5865 5863 5861 5860 5859 5857 5855 5854 5853 5853 5852 5852 5851 5851 5850 5850 5850 5849
5864 5866 5868 5870 5871 5872 5874 5874 5875 5876 5876 5876 5877 5876 5876 5876 5876 5875 5875 5874 5873 5873 5872 5871 5870 5868 5867 5866 5864 5863 5861 5859 5857 5856 5855 5853 5851 5849 5848 5847 5847 5846 5846 5845 5844 5844 5844 5843 5842
5862 5864 5865 5867 5868 5869 5870 5871 5872 5873 5873 5873 5873 5873 5872 5872 5872 5872 5871 5870 5869 5869 5868 5867 5865 5864 5862 5861 5859 5858 5856 5854 5852 5850 5849 5847 5845 5844 5842 5841 5840 5840 5839 5838 5838 5837 5837 5836 5836
5859 5861 5862 5863 5865 5866 5867 5868 5869 5870 5870 5871 5870 5870 5869 5870 5869 5867 5866 5866 5866 5865 5864 5862 5860 5859 5858 5856 5855 5853 5851 5849 5847 5845 5843 5841 5839 5837 5836 5835 5834 5833 5832 5832 5831 5830 5829 5829 5828
5856 5857 5859 5860 5862 5863 5864 5866 5867 5867 5867 5867 5867 5867 5868 5867 5866 5865 5864 5863 5862 5861 5860 5858 5857 5855 5853 5852 5850 5849 5847 5844 5842 5839 5837 5835 5833 5831 5829 5828 5826 5825 5825 5824 5823 5822 5822 5821 5820
5853 5854 5855 5857 5858 5860 5862 5863 5864 5864 5864 5864 5864 5864 5864 5864 5863 5863 5861 5859 5857 5856 5855 5854 5852 5851 5849 5847 5845 5844 5842 5839 5836 5834 5831 5829 5827 5825 5823 5821 5820 5819 5817 5816 5815 5814 5813 5813 5812
5851 5852 5854 5854 5855 5857 5858 5859 5860 5860 5860 5860 5860 5860 5860 5860 5859 5859 5857 5855 5853 5852 5850 5849 5847 5845 5844 5842 5840 5839 5836 5833 5831 5828 5825 5823 5821 5818 5816 5815 5813 5811 5810 5808 5807 5806 5806 5805 5804
5848 5850 5851 5852 5854 5854 5856 5855 5856 5856 5856 5856 5856 5856 5855 5855 5854 5853 5852 5851 5849 5847 5845 5844 5842 5841 5839 5837 5835 5833 5830 5828 5825 5822 5820 5817 5814 5812 5809 5807 5806 5804 5802 5801 5799 5798 5797 5797 5796
5846 5847 5848 5850 5851 5852 5852 5852 5852 5852 5852 5852 5852 5851 5851 5850 5849 5848 5847 5846 5844 5843 5840 5839 5837 5835 5834 5831 5829 5827 5825 5822 5819 5816 5813 5810 5808 5805 5802 5800 5798 5796 5794 5793 5791 5790 5789 5788 5787
5843 5845 5846 5847 5848 5849 5849 5849 5848 5847 5847 5847 5847 5847 5846 5845 5844 5843 5842 5840 5839 5837 5836 5834 5832 5830 5828 5825 5823 5821 5818 5816 5813 5810 5807 5803 5801 5798 5795 5793 5790 5788 5786 5784 5783 5781 5780 5779 5779
5841 5843 5844 5844 5844 5845 5846 5844 5845 5844 5844 5843 5843 5843 5842 5841 5839 5838 5837 5836 5834 5832 5830 5829 5827 5824 5822 5819 5817 5814 5812 5809 5806 5803 5799 5796 5793 5791 5788 5785 5783 5780 5778 5776 5775 5773 5772 5771 5770
5839 5841 5842 5842 5841 5842 5842 5841 5842 5841 5840 5839 5838 5838 5837 5836 5833 5832 5832 5831 5829 5828 5826 5823 5820 5818 5815 5813 5810 5808 5805 5802 5799 5796 5792 5789 5786 5783 5780 5777 5775 5772 5770 5768 5766 5765 5764 5763 5762
5837 5837 5838 5838 5838 5838 5837 5838 5837 5837 5835 5834 5833 5833 5832 5831 5830 5828 5827 5826 5824 5822 5820 5817 5814 5812 5809 5806 5803 5801 5798 5795 5792 5789 5785 5782 5779 5776 5773 5769 5767 5764 5762 5760 5758 5756 5755 5754 5754
5834 5834 5835 5834 5834 5833 5834 5833 5834 5833 5831 5830 5829 5828 5827 5826 5825 5824 5822 5820 5819 5817 5814 5811 5809 5806 5804 5801 5798 5795 5792 5789 5785 5782 5779 5775 5772 5769 5766 5762 5759 5756 5754 5751 5750 5748 5747 5746 5746
5831 5831 5831 5831 5830 5830 5829 5831 5830 5829 5827 5826 5825 5823 5822 5821 5820 5819 5816 5815 5813 5811 5809 5806 5804 5801 5799 5796 5793 5790 5786 5783 5779 5776 5773 5769 5766 5762 5759 5756 5753 5750 5747 5745 5743 5741 5740 5739 5738
5827 5827 5827 5827 5826 5825 5825 5828 5825 5824 5822 5821 5820 5819 5817 5816 5815 5814 5812 5810 5808 5806 5803 5801 5799 5796 5793 5790 5787 5784 5780 5777 5773 5770 5767 5763 5760 5756 5753 5750 5747 5744 5741 5739 5737 5735 5734 5733 5732